Location: Tel Aviv
(32.0670°N, 34.7670°E)
Time: 19:30:17
(UTC+03:00)

Vanguard 2 Rocket - Pass Details

Date: 26 January 2022
Orbit: 553 x 3323 km, 32.9° (Epoch: 24 May)

Event Time Altitude Azimuth Distance (km) Brightness Sun altitude
Exits shadow 00:18:50 18° 79° (E) 5,341 10.7 -75.5°
Drops below altitude 10° 00:22:37 10° 76° (ENE) 6,173 11.2 -75.2°
Sets 00:27:52 0° 73° (ENE) 7,300 11.7 -74.6°
